TimeMST,TemperatureF,Dew PointF,Humidity,Sea Level PressureIn,VisibilityMPH,Wind Direction,Wind SpeedMPH,Gust SpeedMPH,PrecipitationIn,Events,Conditions,WindDirDegrees,DateUTC
12:53 AM,3.9,-0.0,84,30.09,10.0,SSW,5.8,-,N/A,,Clear,200,2012-11-11 07:53:00
1:53 AM,1.9,-2.9,80,30.09,10.0,WSW,3.5,-,N/A,,Clear,250,2012-11-11 08:53:00
2:53 AM,-0.0,-5.1,79,30.10,10.0,SW,3.5,-,N/A,,Clear,230,2012-11-11 09:53:00
3:53 AM,-0.9,-7.1,75,30.10,10.0,Calm,Calm,-,N/A,,Clear,0,2012-11-11 10:53:00
4:53 AM,-0.9,-8.0,72,30.12,10.0,Calm,Calm,-,N/A,,Clear,0,2012-11-11 11:53:00
5:53 AM,-0.0,-5.1,79,30.13,10.0,Calm,Calm,-,N/A,,Clear,0,2012-11-11 12:53:00
7:53 AM,8.1,-0.0,70,30.13,10.0,SW,5.8,-,N/A,,Clear,220,2012-11-11 14:53:00
9:53 AM,17.1,6.1,62,30.14,10.0,Calm,Calm,-,N/A,,Partly Cloudy,0,2012-11-11 16:53:00
10:53 AM,17.1,6.1,62,30.16,10.0,Calm,Calm,-,N/A,,Overcast,0,2012-11-11 17:53:00
11:29 AM,17.6,8.6,68,29.96,5.0,Calm,Calm,-,0.00,Snow,Light Snow,0,2012-11-11 18:29:00
11:53 AM,18.0,8.1,65,30.17,7.0,Calm,Calm,-,0.00,Snow,Light Snow,0,2012-11-11 18:53:00
12:28 PM,17.6,10.4,73,29.97,2.0,Calm,Calm,-,0.00,Snow,Light Snow,0,2012-11-11 19:28:00
12:45 PM,19.4,10.4,68,29.97,1.0,Calm,Calm,-,0.00,Snow,Light Snow,0,2012-11-11 19:45:00
12:53 PM,19.0,12.0,74,30.17,0.8,NW,4.6,-,0.00,Snow,Light Snow,320,2012-11-11 19:53:00
1:02 PM,17.6,12.2,79,29.97,1.0,Calm,Calm,-,0.00,Snow,Light Snow,0,2012-11-11 20:02:00
1:25 PM,19.4,12.2,74,29.97,1.2,SW,3.5,-,0.00,Snow,Light Snow,220,2012-11-11 20:25:00
1:53 PM,19.9,12.0,71,30.18,2.5,Variable,4.6,-,0.00,Snow,Light Snow,0,2012-11-11 20:53:00
2:00 PM,19.4,10.4,68,29.97,3.0,West,3.5,-,0.00,Snow,Light Snow,280,2012-11-11 21:00:00
2:21 PM,19.4,12.2,74,29.97,3.0,SW,3.5,-,0.00,Snow,Light Snow,230,2012-11-11 21:21:00
2:53 PM,19.0,12.0,74,30.20,10.0,SW,4.6,-,0.00,,Overcast,220,2012-11-11 21:53:00
3:53 PM,19.0,5.0,54,30.24,10.0,SW,6.9,-,N/A,,Partly Cloudy,220,2012-11-11 22:53:00
4:53 PM,19.0,3.0,50,30.25,10.0,South,3.5,-,N/A,,Clear,180,2012-11-11 23:53:00
5:53 PM,16.0,3.0,57,30.26,10.0,South,3.5,-,N/A,,Clear,190,2012-11-12 00:53:00
6:53 PM,15.1,1.9,56,30.26,10.0,Calm,Calm,-,N/A,,Clear,0,2012-11-12 01:53:00
8:53 PM,16.0,1.9,54,30.25,10.0,Calm,Calm,-,N/A,,Clear,0,2012-11-12 03:53:00
9:53 PM,6.1,-0.9,73,30.27,10.0,WNW,4.6,-,N/A,,Clear,300,2012-11-12 04:53:00
10:53 PM,10.9,-0.9,59,30.26,10.0,WSW,9.2,-,N/A,,Clear,250,2012-11-12 05:53:00
11:53 PM,8.1,-2.0,64,30.28,10.0,WSW,5.8,-,N/A,,Clear,240,2012-11-12 06:53:00